When you browse on this site, cookies collect data to enhance your experience and personalize the content and advertising you see.
Visit our Privacy Policy to learn more. By continuing to use the site, you agree to this use of cookies and data.
  • în România
  • Lista ţărilor
  • Pe 7 zile
  • Temperatura apei
  • Meteo pe hartă
  • Widget-uri
  • user-avatar
    Intrare

    Meteo pe oră la Natal

    Astăzi, 21 Ianuarie, Marţi

    Timp Temperatura Precipitaţii Vânt Presiune Umiditate
    00:00 +28°C° 0 mm 4 m/s 757 mmHg 82%
    01:00 +28°C° 0 mm 4 m/s 757 mmHg 82%
    02:00 +28°C° 0 mm 3 m/s 757 mmHg 82%
    03:00 +28°C° 0 mm 3 m/s 756 mmHg 83%
    04:00 +28°C° 0 mm 2 m/s 756 mmHg 84%
    05:00 +28°C° 0.1 mm 2 m/s 756 mmHg 83%
    06:00 +28°C° 0.1 mm 2 m/s 757 mmHg 82%
    07:00 +28°C° 0.1 mm 2 m/s 757 mmHg 81%
    08:00 +29°C° 0.2 mm 2 m/s 758 mmHg 76%
    09:00 +30°C° 0.2 mm 3 m/s 758 mmHg 71%
    10:00 +31°C° 0.2 mm 3 m/s 758 mmHg 66%
    11:00 +33°C° 0.1 mm 3 m/s 758 mmHg 63%
    12:00 +34°C° 0.1 mm 4 m/s 757 mmHg 60%
    13:00 +34°C° 0.1 mm 4 m/s 757 mmHg 58%
    14:00 +34°C° 0 mm 4 m/s 756 mmHg 59%
    15:00 +34°C° 0 mm 4 m/s 756 mmHg 60%
    16:00 +33°C° 0 mm 4 m/s 756 mmHg 61%
    17:00 +32°C° 0 mm 4 m/s 756 mmHg 65%
    18:00 +32°C° 0 mm 4 m/s 756 mmHg 68%
    19:00 +30°C° 0 mm 4 m/s 757 mmHg 71%
    20:00 +30°C° 0 mm 4 m/s 757 mmHg 72%
    21:00 +29°C° 0 mm 3 m/s 758 mmHg 73%
    22:00 +29°C° 0 mm 3 m/s 758 mmHg 75%
    23:00 +29°C° 0 mm 3 m/s 758 mmHg 76%

    Mâine, 22 Ianuarie, Miercuri

    Timp Temperatura Precipitaţii Vânt Presiune Umiditate
    00:00 +29°C° 0 mm 3 m/s 758 mmHg 78%
    01:00 +29°C° 0 mm 2 m/s 758 mmHg 80%
    02:00 +28°C° 0 mm 2 m/s 757 mmHg 80%
    03:00 +28°C° 0 mm 1 m/s 757 mmHg 81%
    04:00 +28°C° 0 mm 1 m/s 757 mmHg 81%
    05:00 +28°C° 0.1 mm 1 m/s 757 mmHg 81%
    06:00 +28°C° 0.1 mm 1 m/s 757 mmHg 80%
    07:00 +28°C° 0.1 mm 2 m/s 757 mmHg 80%
    08:00 +30°C° 0 mm 2 m/s 757 mmHg 73%
    09:00 +31°C° 0 mm 2 m/s 758 mmHg 66%
    10:00 +32°C° 0 mm 2 m/s 758 mmHg 59%
    11:00 +34°C° 0 mm 3 m/s 758 mmHg 58%
    12:00 +34°C° 0 mm 4 m/s 757 mmHg 57%
    13:00 +35°C° 0 mm 4 m/s 757 mmHg 56%
    14:00 +34°C° 0 mm 4 m/s 756 mmHg 58%
    15:00 +34°C° 0 mm 4 m/s 756 mmHg 59%
    16:00 +34°C° 0 mm 4 m/s 755 mmHg 60%
    17:00 +33°C° 0 mm 4 m/s 756 mmHg 65%
    18:00 +32°C° 0 mm 4 m/s 756 mmHg 70%
    19:00 +30°C° 0 mm 4 m/s 756 mmHg 74%
    20:00 +30°C° 0 mm 4 m/s 756 mmHg 75%
    21:00 +29°C° 0 mm 4 m/s 757 mmHg 77%
    22:00 +29°C° 0 mm 5 m/s 758 mmHg 78%
    23:00 +29°C° 0 mm 4 m/s 757 mmHg 79%

    Poimâine, 23 Ianuarie, Joi

    Timp Temperatura Precipitaţii Vânt Presiune Umiditate
    00:00 +29°C° 0 mm 4 m/s 757 mmHg 79%
    01:00 +29°C° 0 mm 4 m/s 757 mmHg 80%
    02:00 +29°C° 0.3 mm 4 m/s 757 mmHg 81%
    03:00 +29°C° 0.3 mm 4 m/s 757 mmHg 82%
    04:00 +28°C° 0.3 mm 4 m/s 757 mmHg 83%
    05:00 +28°C° 0.4 mm 4 m/s 757 mmHg 83%
    06:00 +28°C° 0.4 mm 4 m/s 757 mmHg 83%
    07:00 +28°C° 0.4 mm 4 m/s 757 mmHg 83%
    08:00 +30°C° 0.1 mm 4 m/s 757 mmHg 77%
    09:00 +32°C° 0.1 mm 5 m/s 757 mmHg 72%
    10:00 +33°C° 0.1 mm 5 m/s 758 mmHg 66%
    11:00 +34°C° 0.1 mm 6 m/s 757 mmHg 64%
    12:00 +34°C° 0.1 mm 6 m/s 757 mmHg 61%
    13:00 +35°C° 0.1 mm 6 m/s 757 mmHg 59%
    14:00 +34°C° 0 mm 6 m/s 756 mmHg 60%
    15:00 +34°C° 0 mm 5 m/s 756 mmHg 60%
    16:00 +34°C° 0 mm 5 m/s 755 mmHg 61%
    17:00 +33°C° 0 mm 5 m/s 756 mmHg 64%
    18:00 +32°C° 0 mm 4 m/s 756 mmHg 68%
    19:00 +30°C° 0 mm 4 m/s 756 mmHg 72%
    20:00 +30°C° 0 mm 4 m/s 757 mmHg 74%
    21:00 +29°C° 0 mm 4 m/s 757 mmHg 76%
    22:00 +29°C° 0 mm 4 m/s 757 mmHg 78%
    23:00 +29°C° 0.1 mm 4 m/s 757 mmHg 79%

    24 Ianuarie, Vineri

    Timp Temperatura Precipitaţii Vânt Presiune Umiditate
    00:00 +29°C° 0.1 mm 4 m/s 757 mmHg 80%
    01:00 +29°C° 0.1 mm 4 m/s 757 mmHg 81%
    02:00 +29°C° 0.1 mm 4 m/s 757 mmHg 81%
    03:00 +29°C° 0.1 mm 4 m/s 757 mmHg 82%
    04:00 +29°C° 0.1 mm 4 m/s 756 mmHg 82%
    05:00 +29°C° 0 mm 4 m/s 757 mmHg 81%
    06:00 +29°C° 0 mm 4 m/s 757 mmHg 80%
    07:00 +29°C° 0 mm 4 m/s 757 mmHg 79%
    08:00 +30°C° 0.1 mm 5 m/s 758 mmHg 75%
    09:00 +32°C° 0.1 mm 5 m/s 758 mmHg 70%
    10:00 +33°C° 0.1 mm 6 m/s 758 mmHg 66%
    11:00 +33°C° 0.1 mm 6 m/s 758 mmHg 63%
    12:00 +34°C° 0.1 mm 6 m/s 758 mmHg 59%
    13:00 +35°C° 0.1 mm 6 m/s 758 mmHg 55%
    14:00 +34°C° 0 mm 5 m/s 757 mmHg 56%
    15:00 +34°C° 0 mm 5 m/s 757 mmHg 57%
    16:00 +34°C° 0 mm 5 m/s 756 mmHg 58%
    17:00 +33°C° 0 mm 5 m/s 756 mmHg 63%
    18:00 +32°C° 0 mm 4 m/s 757 mmHg 67%
    19:00 +30°C° 0 mm 4 m/s 757 mmHg 72%
    20:00 +30°C° 0 mm 3 m/s 757 mmHg 74%
    21:00 +29°C° 0.1 mm 3 m/s 758 mmHg 77%
    22:00 +29°C° 0.1 mm 3 m/s 758 mmHg 79%
    23:00 +29°C° 0.1 mm 3 m/s 758 mmHg 81%

    25 Ianuarie, Sâmbătă

    Timp Temperatura Precipitaţii Vânt Presiune Umiditate
    00:00 +29°C° 0.1 mm 3 m/s 758 mmHg 83%
    01:00 +29°C° 0.1 mm 4 m/s 758 mmHg 84%
    02:00 +28°C° 0.1 mm 4 m/s 758 mmHg 84%
    03:00 +28°C° 0.1 mm 4 m/s 758 mmHg 85%
    04:00 +28°C° 0.1 mm 4 m/s 757 mmHg 85%
    05:00 +28°C° 0.1 mm 4 m/s 757 mmHg 85%
    06:00 +28°C° 0.1 mm 4 m/s 758 mmHg 85%
    07:00 +28°C° 0.1 mm 4 m/s 758 mmHg 85%
    08:00 +30°C° 0.3 mm 5 m/s 758 mmHg 79%
    09:00 +32°C° 0.3 mm 5 m/s 759 mmHg 72%
    10:00 +33°C° 0.3 mm 6 m/s 759 mmHg 66%
    11:00 +34°C° 0.1 mm 6 m/s 759 mmHg 63%
    12:00 +34°C° 0.1 mm 6 m/s 758 mmHg 61%
    13:00 +35°C° 0.1 mm 5 m/s 758 mmHg 58%
    14:00 +34°C° 0 mm 5 m/s 758 mmHg 58%
    15:00 +34°C° 0 mm 5 m/s 757 mmHg 59%
    16:00 +34°C° 0 mm 5 m/s 757 mmHg 59%
    17:00 +33°C° 0 mm 5 m/s 757 mmHg 64%
    18:00 +32°C° 0 mm 4 m/s 757 mmHg 69%
    19:00 +30°C° 0 mm 4 m/s 758 mmHg 73%
    20:00 +30°C° 0 mm 4 m/s 758 mmHg 75%
    21:00 +30°C° 0 mm 4 m/s 759 mmHg 77%
    22:00 +29°C° 0 mm 4 m/s 759 mmHg 79%
    23:00 +29°C° 0.1 mm 4 m/s 759 mmHg 80%

    26 Ianuarie, Duminică

    Timp Temperatura Precipitaţii Vânt Presiune Umiditate
    00:00 +29°C° 0.1 mm 4 m/s 759 mmHg 82%
    01:00 +29°C° 0.1 mm 4 m/s 759 mmHg 83%
    02:00 +28°C° 0.4 mm 4 m/s 758 mmHg 84%
    03:00 +28°C° 0.4 mm 3 m/s 758 mmHg 85%
    04:00 +28°C° 0.4 mm 3 m/s 758 mmHg 86%
    05:00 +28°C° 0.2 mm 3 m/s 758 mmHg 85%
    06:00 +28°C° 0.2 mm 4 m/s 758 mmHg 85%
    07:00 +28°C° 0.2 mm 4 m/s 759 mmHg 84%
    08:00 +29°C° 0.1 mm 4 m/s 759 mmHg 78%
    09:00 +32°C° 0.1 mm 4 m/s 759 mmHg 72%
    10:00 +33°C° 0.1 mm 5 m/s 759 mmHg 66%
    11:00 +33°C° 0 mm 5 m/s 759 mmHg 63%
    12:00 +34°C° 0 mm 5 m/s 759 mmHg 61%
    13:00 +34°C° 0 mm 6 m/s 758 mmHg 59%
    14:00 +34°C° 0 mm 6 m/s 758 mmHg 60%
    15:00 +34°C° 0 mm 5 m/s 757 mmHg 62%
    16:00 +33°C° 0 mm 5 m/s 756 mmHg 64%
    17:00 +32°C° 0 mm 5 m/s 757 mmHg 68%
    18:00 +30°C° 0 mm 5 m/s 757 mmHg 73%
    19:00 +29°C° 0 mm 5 m/s 757 mmHg 77%
    20:00 +29°C° 0.1 mm 4 m/s 758 mmHg 79%
    21:00 +29°C° 0.1 mm 4 m/s 758 mmHg 80%
    22:00 +29°C° 0.1 mm 4 m/s 758 mmHg 81%
    23:00 +29°C° 0.2 mm 4 m/s 758 mmHg 82%
    Arată mai mult